Location: Deuil
(48.9767°N, 2.3272°E)
Time: 00:05:45
(UTC+00:00)

Cosmos 2228 - Pass Details

Date: 30 May 2022
Orbit: 586 x 617 km, 82.5° (Epoch: 03 July)

Event Time Altitude Azimuth Distance (km) Brightness Sun altitude
Rises 02:43:39 0° 340° (NNW) 2,888 6.9 -9.2°
Reaches altitude 10° 02:46:07 10° 329° (NNW) 1,973 5.9 -8.9°
Maximum altitude 02:49:49 28° 271° (W) 1,157 4.1 -8.5°
Enters shadow 02:53:28 10° 213° (SSW) 1,943 5.0 -8.1°
